Regional Weather Roundup
Issued by NWS

Home | Current Version | Previous Version | Graphics & Text | Print | Product List | Glossary On
Versions: 1 2 3 4 5 6 7 8 9 10 11 12 13 14 15 16 17 18 19 20 21 22 23 24 25 26 27 28 29 30 31 32 33 34 35 36 37 38 39 40 41 42 43 44 45 46 47 48 49 50
000
ASUS43 KFSD 121802
RWRSD

WEATHER ROUNDUP FOR SOUTH DAKOTA
NATIONAL WEATHER SERVICE SIOUX FALLS SD
100 PM CDT SAT JUL 12 2014

NOTE: "FAIR" INDICATES FEW OR NO CLOUDS BELOW 12,000 FEET WITH NO
SIGNIFICANT WEATHER AND/OR OBSTRUCTIONS TO VISIBILITY.


SDZ001>005-009-010-012>017-121900-
NORTHWEST AND NORTH CENTRAL SOUTH DAKOTA

CITY           SKY/WX    TMP DP  RH WIND       PRES   REMARKS
BUFFALO          N/A     76  62  62 VRB6      30.11F
FAITH            N/A     75  63  66 S10       30.14S
MOBRIDGE       PTSUNNY   73  63  70 VRB3      30.08F
$$

SDZ012>016-024>037-041>051-057-063-072>074-121900-
SOUTHWEST AND SOUTH CENTRAL SOUTH DAKOTA

CITY           SKY/WX    TMP DP  RH WIND       PRES   REMARKS
RAPID CTY ARPT PTSUNNY   69  63  81 SE8       30.18F
PIERRE         MOSUNNY   73  62  68 CALM      30.09S
CUSTER         CLOUDY    72  55  55 VRB5      30.28S
PHILIP         PTSUNNY   77  61  57 VRB3      30.13S
PINE RIDGE     MOSUNNY   75  62  64 VRB3      30.18F
WINNER         CLOUDY    78  65  63 CALM      30.09S
$$

SDZ004>011-016>023-039-040-121900-
NORTHEAST SOUTH DAKOTA

CITY           SKY/WX    TMP DP  RH WIND       PRES   REMARKS
ABERDEEN       CLOUDY    70  63  78 VRB3      30.06S
WATERTOWN      LGT RAIN  66  62  87 NE3       30.07F
SISSETON         N/A     69  64  84 CALM      30.03F
$$

SDZ017-020-022-023-036>040-048>070-121900-
SOUTHEAST SOUTH DAKOTA

CITY           SKY/WX    TMP DP  RH WIND       PRES   REMARKS
SIOUX FALLS    CLOUDY    74  65  73 N15       30.06S
HURON          CLOUDY    73  64  73 E6        30.05F
CHAMBERLAIN    PTSUNNY   74  66  75 NE7       30.08S
MITCHELL       PTSUNNY   78  67  68 E8        30.05F
YANKTON        CLOUDY    70  66  88 N6        30.05F
$$

ABBREVIATIONS USED IN REMARKS
   TC - TEMPERATURE IN CELSIUS
  WCI - WIND CHILL INDEX
   HX - HEAT INDEX
  VSB - VISIBILITY




USA.gov is the U.S. government's official web portal to all federal, state and local government web resources and services.